Weather History for Homestead AFB, FL

Change the Weather History Date:

Wednesday, March 27, 2013

  Actual Average Record
Temperature  
Mean Temperature 56 °F -  
Max Temperature 69 °F 80 °F 91 °F (1952)
Min Temperature 43 °F 60 °F 38 °F (1953)
Degree Days  
Heating Degree Days 9    
Growing Degree Days 6 (Base 50)    
Moisture  
Dew Point 41 °F    
Average Humidity 54    
Maximum Humidity 84    
Minimum Humidity 41    
Precipitation  
Precipitation 0.00 in - - ()
Sea Level Pressure  
Sea Level Pressure 30.22 in    
Wind  
Wind Speed 10 mph (North)    
Max Wind Speed 16 mph    
Max Gust Speed -    
Visibility 10 miles    
Events      
Averages and records for this station are not official NWS values.
T = Trace of Precipitation, MM = Missing Value Source: NWS Daily Summary

Daily Weather History Graph

Daily Weather History Graph

Search for Another Location

Airport:

Trip Planner

Search our weather history database for the weather conditions in past years. The results will help you decide how hot, cold, wet, or windy it might be!

Date:

Astronomy

Mar. 27, 2013 Rise Set
Actual Time 7:17 AM EDT 7:36 PM EDT
Civil Twilight 6:54 AM EDT 7:59 PM EDT
Nautical Twilight 6:28 AM EDT 8:25 PM EDT
Astronomical Twilight 6:01 AM EDT 8:52 PM EDT
Moon 8:09 PM EDT (3/27) 7:12 AM EDT (3/27)
Length of Visible Light 13h 04m
Length of Day
12h 18m
Full, 100% of the Moon is Illuminated
Mar 27
Full
Apr 3
Last Quarter
Apr 10
New
Apr 18
First Quarter
Apr 25
Full

Hourly Weather History & Observations

Time (EDT) Temp. Windchill Dew Point Humidity Pressure Visibility Wind Dir Wind Speed Gust Speed Precip Events Conditions
12:58 AM 51.8 °F - 36.3 °F 56% 30.23 in 10.0 mi NNW 13.8 mph - N/A   Clear
1:58 AM 50.2 °F - 36.5 °F 59% 30.23 in 10.0 mi NW 12.7 mph - N/A   Clear
2:58 AM 48.9 °F - 36.7 °F 63% 30.21 in 10.0 mi NNW 11.5 mph - N/A   Clear
3:58 AM 48.0 °F - 36.9 °F 65% 30.20 in 10.0 mi NNW 12.7 mph - N/A   Clear
4:58 AM 46.6 °F - 36.7 °F 68% 30.20 in 10.0 mi NNW 9.2 mph - N/A   Clear
5:58 AM 45.3 °F 41.6 °F 37.6 °F 74% 30.21 in 10.0 mi NNW 6.9 mph - N/A   Clear
6:58 AM 43.7 °F 39.7 °F 39.0 °F 84% 30.23 in 10.0 mi NW 6.9 mph - N/A   Clear
7:58 AM 45.7 °F 41.0 °F 39.2 °F 78% 30.25 in 10.0 mi NNW 9.2 mph - N/A   Clear
8:58 AM 50.9 °F - 35.2 °F 55% 30.26 in 10.0 mi NNW 16.1 mph - N/A   Clear
9:58 AM 55.2 °F - 36.1 °F 49% 30.27 in 10.0 mi North 12.7 mph - N/A   Clear
10:58 AM 59.9 °F - 38.1 °F 44% 30.27 in 10.0 mi NNW 15.0 mph - N/A   Clear
11:58 AM 63.3 °F - 39.7 °F 42% 30.26 in 10.0 mi NNW 10.4 mph - N/A   Clear
12:58 PM 64.8 °F - 42.3 °F 44% 30.25 in 10.0 mi North 6.9 mph - N/A   Clear
1:58 PM 67.1 °F - 43.5 °F 42% 30.22 in 10.0 mi NNE 8.1 mph - N/A   Clear
2:58 PM 68.7 °F - 46.0 °F 44% 30.21 in 10.0 mi Variable 6.9 mph - N/A   Partly Cloudy
3:58 PM 69.6 °F - 46.6 °F 44% 30.19 in 10.0 mi East 8.1 mph - N/A   Clear
4:58 PM 69.3 °F - 47.5 °F 46% 30.18 in 10.0 mi East 9.2 mph - N/A   Clear
5:58 PM 68.0 °F - 48.2 °F 49% 30.19 in 10.0 mi East 5.8 mph - N/A   Clear
6:58 PM 65.3 °F - 50.5 °F 59% 30.20 in 10.0 mi ENE 4.6 mph - N/A   Clear
7:35 PM 66.2 °F - 46.4 °F 49% 30.19 in 10.0 mi NNE 4.6 mph - N/A   Light Drizzle
7:44 PM 64.4 °F - 48.2 °F 56% 30.19 in 10.0 mi NNW 6.9 mph - N/A   Scattered Clouds
7:58 PM 65.1 °F - 40.8 °F 41% 30.21 in 10.0 mi NNW 8.1 mph - 0.00 in   Scattered Clouds
8:58 PM 62.2 °F - 39.2 °F 43% 30.22 in 10.0 mi North 9.2 mph - N/A   Clear
9:58 PM 60.1 °F - 38.8 °F 45% 30.23 in 10.0 mi North 8.1 mph - N/A   Clear
10:58 PM 58.3 °F - 37.9 °F 47% 30.24 in 10.0 mi North 6.9 mph - N/A   Clear
11:58 PM 56.8 °F - 37.2 °F 48% 30.23 in 10.0 mi North 8.1 mph - N/A   Clear